{"data":{"norad_id":39076,"epoch":"2026-09-19T12:14:52.688256Z","epoch_age_seconds":99816,"freshness":"FRESH","line1":"1 39076U 13005E   26262.51033204 -.00000160  00000+0 -31152-3 0  9993","line2":"2 39076  51.9902 356.3715 0001494 110.5301 249.5726 12.62258511627926","mean_motion":12.62258511,"eccentricity":0.0001494,"inclination_deg":51.9902,"raan_deg":356.3715,"arg_perigee_deg":110.5301,"mean_anomaly_deg":249.5726,"bstar":-0.00031152,"rev_number":62792,"period_min":114.08122721701,"perigee_km":1412.4721107416,"apogee_km":1414.8002925743,"semimajor_km":7791.7732016579,"source":"CELESTRAK","updated_at":"2026-09-20T09:00:45.041631Z"}}